Almeria, Spain

7:17 PM CEST en Octubre 22, 2018 (GMT +0200)
Almeria

Tiempo Historia de LEAM - Enero, 2015

Change the Weather History Date:

Jueves, Enero 1, 2015

  Actual Average Record
Temperature  
Temperatura media 52 ° F -  
Temperatura máxima 63 ° F 58 ° F 66 ° F (2006)
Temperatura mínima 41 ° F 46 ° F 41 ° F (2005)
Degree Days  
Grados día de calefacción 13    
Growing Degree Days 2 (Base 50)    
Moisture  
Punto de rocío 36 ° F    
Average Humidity 49    
Maximum Humidity 71    
Minimum Humidity 21    
Precipitación  
Precipitación 0.00 pul 0.04 pul - ()
Presión al nivel del mar  
Presión al nivel del mar 30.54 pul    
Viento  
Velocidad del viento 8 mph ()    
Velocidad máxima del viento 20 mph    
Max Gust Speed -    
Visibilidad 6.7 Millas    
Eventos      
Averages and records for this station are not official NWS values.
T = Trace of Precipitation, MM = Missing Value Source: Averaged Metar Reports

Daily Weather History Graph

Daily Weather History Graph

Search for Another Location

Airport or City:

Astronomía

Jan. 01, 2015 Salida Puesta
Hora real 8:22 AM CET 6:03 PM CET
Crepúsculo civil 7:53 AM CET 6:32 PM CET
Crepúsculo náutico 7:21 AM CET 7:04 PM CET
Crepúsculo astronómico 6:49 AM CET 7:36 PM CET
Luna 3:23 PM CET (1/1) 4:39 AM CET (1/1)
Horas de luz 10h 39m
Horas de luz
9h 41m
Gibosa creciente, 86% of the Moon is Illuminated
Ene 1
Gibosa creciente
Ene 5
Luna llena
Ene 13
Cuarto menguante
Ene 20
Nueva
Ene 27
Cuarto creciente

Hourly Weather History & Observations

Hora (CET) Temp. Vientos helados Punto de rocío Humedad Presión Visibilidad Wind Dir Velocidad del viento Velocidad de ráfagas Precip Eventos Condiciones
12:00 AM 47 ° F - 36 ° F 57% 30.39 pul - NNE 4.6 mph - -  
1:00 AM 46 ° F - 37 ° F 61% 30.40 pul - Norte 5.8 mph - -  
2:00 AM 45 ° F - 37 ° F 64% 30.40 pul - Norte 3.5 mph - -  
3:00 AM 46 ° F - 37 ° F 62% 30.40 pul - NNE 6.9 mph - -  
4:00 AM 44 ° F - 36 ° F 64% 30.42 pul - Norte 4.6 mph - -  
5:00 AM 43 ° F - 27 ° F 40% 30.43 pul - NNO 4.6 mph - -  
5:00 AM 42.8 ° F 41.1 ° F 26.6 ° F 53% 30.42 pul - NO 3.5 mph - N/A   Despejado
5:30 AM 42.8 ° F 39.3 ° F 26.6 ° F 53% 30.42 pul - NE 5.8 mph - N/A   Despejado
6:00 AM 43 ° F - 28 ° F 42% 30.46 pul - NE 1.2 mph - -  
6:00 AM 42.8 ° F - 26.6 ° F 53% 30.45 pul - Variable 1.2 mph - N/A   Despejado
6:30 AM 42.8 ° F 40.1 ° F 26.6 ° F 53% 30.45 pul - NNO 4.6 mph - N/A   Despejado
7:00 AM 47 ° F - 21 ° F 23% 30.48 pul 12 mi Norte 8.1 mph - -  
7:00 AM 46.4 ° F 42.4 ° F 19.4 ° F 34% 30.45 pul - Norte 8.1 mph - N/A   Despejado
7:30 AM 48.2 ° F - 17.6 ° F 30% 30.48 pul - Norte 10.4 mph - N/A   Despejado
8:00 AM 48 ° F - 20 ° F 21% 30.51 pul - NNO 4.6 mph - -  
8:00 AM 48.2 ° F - 17.6 ° F 30% 30.51 pul 6.2 mi NNO 4.6 mph - N/A   Parcialmente nublado
8:30 AM 46.4 ° F 43.5 ° F 21.2 ° F 37% 30.51 pul 6.2 mi NNO 5.8 mph - N/A   Parcialmente nublado
9:00 AM 50 ° F - 24 ° F 23% 30.54 pul - NNO 9.2 mph - -  
9:00 AM 50.0 ° F - 23.0 ° F 35% 30.54 pul 6.2 mi NNO 8.1 mph - N/A   Parcialmente nublado
9:30 AM 53.6 ° F - 24.8 ° F 33% 30.54 pul 6.2 mi Norte 8.1 mph - N/A   Parcialmente nublado
10:00 AM 54 ° F - 30 ° F 27% 30.57 pul 25 mi Norte 9.2 mph - -   Nubes dispersas
10:00 AM 53.6 ° F - 28.4 ° F 38% 30.57 pul 6.2 mi Norte 9.2 mph - N/A   Parcialmente nublado
10:30 AM 57.2 ° F - 41.0 ° F 55% 30.57 pul 6.2 mi NNE 15.0 mph - N/A   Parcialmente nublado
11:00 AM 60 ° F - 42 ° F 40% 30.59 pul - NE 16.1 mph - -  
11:00 AM 59.0 ° F - 41.0 ° F 51% 30.60 pul 6.2 mi NE 16.1 mph - N/A   Parcialmente nublado
11:30 AM 59.0 ° F - 41.0 ° F 51% 30.60 pul 6.2 mi NE 17.3 mph - N/A   Parcialmente nublado
12:00 PM 61 ° F - 43 ° F 40% 30.59 pul - NE 19.6 mph - -  
12:00 PM 60.8 ° F - 42.8 ° F 52% 30.57 pul 6.2 mi ENE 17.3 mph - N/A   Parcialmente nublado
12:30 PM 60.8 ° F - 41.0 ° F 48% 30.57 pul 6.2 mi ENE 17.3 mph - N/A   Parcialmente nublado
1:00 PM 63 ° F - 42 ° F 35% 30.58 pul 25 mi ENE 16.1 mph - -   Nubes dispersas
1:00 PM 60.8 ° F - 41.0 ° F 48% 30.57 pul 6.2 mi ENE 16.1 mph - N/A   Parcialmente nublado
1:30 PM 60.8 ° F - 41.0 ° F 48% 30.54 pul 6.2 mi Este 15.0 mph - N/A   Parcialmente nublado
2:00 PM 63 ° F - 42 ° F 34% 30.56 pul - ENE 15.0 mph - -  
2:00 PM 62.6 ° F - 41.0 ° F 45% 30.54 pul 6.2 mi ENE 15.0 mph - N/A   Parcialmente nublado
2:30 PM 62.6 ° F - 41.0 ° F 45% 30.54 pul 6.2 mi Este 13.8 mph - N/A   Parcialmente nublado
3:00 PM 63 ° F - 42 ° F 35% 30.55 pul - ENE 13.8 mph - -  
3:00 PM 62.6 ° F - 41.0 ° F 45% 30.54 pul 6.2 mi ENE 12.7 mph - N/A   Parcialmente nublado
3:30 PM 60.8 ° F - 41.0 ° F 48% 30.54 pul 6.2 mi ENE 11.5 mph - N/A   Parcialmente nublado
4:00 PM 63 ° F - 42 ° F 35% 30.56 pul 25 mi Este 13.8 mph - -   Nubes dispersas
4:00 PM 60.8 ° F - 42.8 ° F 52% 30.54 pul 6.2 mi Este 12.7 mph - N/A   Parcialmente nublado
4:30 PM 60.8 ° F - 39.2 ° F 45% 30.54 pul 6.2 mi Este 10.4 mph - N/A   Parcialmente nublado
5:00 PM 62 ° F - 44 ° F 40% 30.57 pul - Este 11.5 mph - -  
5:00 PM 60.8 ° F - 42.8 ° F 52% 30.57 pul 6.2 mi Este 10.4 mph - N/A   Parcialmente nublado
5:30 PM 57.2 ° F - 42.8 ° F 59% 30.57 pul 6.2 mi Este 9.2 mph - N/A   Nubes dispersas
6:00 PM 57 ° F - 43 ° F 49% 30.60 pul - Este 5.8 mph - -  
6:00 PM 55.4 ° F - 42.8 ° F 63% 30.57 pul 6.2 mi Este 5.8 mph - N/A   Nubes dispersas
6:30 PM 53.6 ° F - 42.8 ° F 67% 30.60 pul 6.2 mi ENE 6.9 mph - N/A   Nubes dispersas
7:00 PM 54 ° F - 43 ° F 57% 30.61 pul 12 mi NNE 5.8 mph - -   Parcialmente nublado
7:00 PM 53.6 ° F - 42.8 ° F 67% 30.60 pul 6.2 mi NNE 4.6 mph - N/A   Nubes dispersas
7:30 PM 53.6 ° F - 42.8 ° F 67% 30.60 pul 6.2 mi NNE 6.9 mph - N/A   Nubes dispersas
8:00 PM 54 ° F - 42 ° F 55% 30.63 pul - NNE 6.9 mph - -  
8:00 PM 53.6 ° F - 41.0 ° F 62% 30.63 pul 6.2 mi NNE 5.8 mph - N/A   Nubes dispersas
8:30 PM 51.8 ° F - 41.0 ° F 67% 30.63 pul 6.2 mi NNE 5.8 mph - N/A   Nubes dispersas
9:00 PM 53 ° F - 42 ° F 55% 30.63 pul - Norte 6.9 mph - -  
9:00 PM 51.8 ° F - 41.0 ° F 67% 30.63 pul 6.2 mi NNE 5.8 mph - N/A   Nubes dispersas
9:30 PM 51.8 ° F - 39.2 ° F 62% 30.63 pul 6.2 mi Norte 8.1 mph - N/A   Nubes dispersas
10:00 PM 52 ° F - 42 ° F 60% 30.63 pul 12 mi NNO 8.1 mph - -   Parcialmente nublado
10:00 PM 50.0 ° F - 41.0 ° F 71% 30.63 pul 6.2 mi NNO 6.9 mph - N/A   Nubes dispersas
10:30 PM 51.8 ° F - 41.0 ° F 67% 30.63 pul 6.2 mi NNO 6.9 mph - N/A   Nubes dispersas
11:00 PM 51 ° F - 42 ° F 62% 30.63 pul - NNO 8.1 mph - -